Terminal Aerodrome Forecast
Issued by NWS Cleveland, OH

Home | Current Version | Previous Version | Graphics & Text | Print | Product List | Glossary On
Versions: 1 2 3 4 5 6 7 8 9 10 11 12 13 14
000
FTUS41 KCLE 182337
TAFTOL
TAF
KTOL 182337Z 1900/1924 VRB03KT P6SM FEW250
     FM190900 VRB03KT 4SM BR SCT250
     FM191300 23004KT P6SM SCT250
     FM191700 26007KT P6SM SCT040=

USA.gov is the U.S. government's official web portal to all federal, state and local government web resources and services.